Tracking 19176 objects as of 25-May-2018
HD Live streaming from Space Station
objects crossing your sky now

FENGYUN 1C DEB

Track FENGYUN 1C DEB now!
10-day predictions


NORAD ID: 30540
Int'l Code: 1999-025AKE
Perigee: 806.7 km
Apogee: 905.1 km
Inclination: 99.0 °
Period: 101.9 minutes
Semi major axis: 7226 km
RCS: 0.0143 m2 (small)
Launch date: May 10, 1999
Source: People's Republic of China (PRC)
Launch site: Taiyaun Space Center, China (TSC)

Note: This is SATELLITE DEBRIS
aabbcc
Your satellite tracking list
Your tracking list is empty




NASA's NSSDC Master Catalog

Two Line Element Set (TLE):
1 30540U 99025AKE 18145.12124380  .00000562  00000-0  31771-3 0  9992
2 30540  98.9653 207.9627 0068115  18.0096  11.9573 14.13111328582233
Source of the keplerian elements: AFSPC